Left ArrowRight Arrow

33.98154, -81.23621

Hourly Observations for June 24, 2024

Temp ( °F °C ) Dew Point ( °F °C ) Humidity (%) Winds ( mph kmh ) Pressure ( in mb ) Visibility ( mi km ) Precip ( " mm )
12:56 am 00:56 Partly Cloudy 83 28.3 72 22.2 70 70 SW 6 9 29.83 1010 10 16 0.00 0.00
1:56 am 01:56 Mostly Cloudy 81 27.2 72 22.2 74 74 SSW 7 11 29.82 1010 10 16 0.00 0.00
2:56 am 02:56 Mostly Cloudy 80 26.7 73 22.8 79 79 SW 3 6 29.81 1010 10 16 0.00 0.00
3:56 am 03:56 Partly Cloudy 78 25.6 73 22.8 85 85 WSW 6 9 29.80 1009 10 16 0.00 0.00
4:56 am 04:56 Mostly Cloudy 77 25 73 22.8 88 88 WSW 5 7 29.80 1009 10 16 0.00 0.00
5:56 am 05:56 Mostly Cloudy 76 24.4 73 22.8 91 91 Calm 29.80 1009 10 16 0.00 0.00
6:56 am 06:56 Mostly Cloudy 76 24.4 72 22.2 88 88 WSW 5 7 29.81 1009 10 16 0.00 0.00
7:56 am 07:56 Mostly Cloudy 79 26.1 71 21.7 77 77 WSW 7 11 29.82 1010 10 16 0.00 0.00
8:56 am 08:56 Mostly Cloudy 84 28.9 70 21.1 63 63 SW 6 9 29.82 1010 10 16 0.00 0.00
9:56 am 09:56 Mostly Cloudy 87 30.6 70 21.1 57 57 W 10 17 29.83 1010 10 16 0.00 0.00
10:56 am 10:56 Mostly Cloudy 91 32.8 71 21.7 52 52 SW 7 11 29.83 1010 10 16 0.00 0.00
11:56 am 11:56 Mostly Cloudy 96 35.6 71 21.7 45 45 WNW 15 24 29.83 1010 10 16 0.00 0.00
12:56 pm 12:56 Mostly Cloudy 96 35.6 69 20.6 42 42 VRB 3 6 29.82 1010 10 16 0.00 0.00
1:56 pm 13:56 Mostly Cloudy 96 35.6 68 20 40 40 N 8 13 29.81 1010 10 16 0.00 0.00
2:56 pm 14:56 Partly Cloudy 101 38.3 65 18.3 31 31 W 15 24 29.79 1009 10 16 0.00 0.00
3:56 pm 15:56 Partly Cloudy 100 37.8 66 18.9 33 33 WNW 13 20 29.77 1008 10 16 0.00 0.00
4:56 pm 16:56 Partly Cloudy 99 37.2 66 18.9 34 34 NW 12 19 29.76 1008 10 16 0.00 0.00
5:56 pm 17:56 Partly Cloudy 98 36.7 65 18.3 34 34 NW 13 20 29.75 1008 10 16 0.00 0.00
6:56 pm 18:56 Partly Cloudy 98 36.7 67 19.4 36 36 NW 10 17 29.76 1008 10 16 0.00 0.00
7:56 pm 19:56 Partly Cloudy 96 35.6 66 18.9 38 38 NW 9 15 29.78 1008 10 16 0.00 0.00
8:56 pm 20:56 Mostly Clear 92 33.3 68 20 46 46 NW 6 9 29.79 1009 10 16 0.00 0.00
9:56 pm 21:56 Partly Cloudy 90 32.2 65 18.3 44 44 NNW 5 7 29.82 1010 10 16 0.00 0.00
10:56 pm 22:56 Partly Cloudy 89 31.7 61 16.1 39 39 NNW 5 7 29.85 1011 10 16 0.00 0.00
11:56 pm 23:56 Cloudy 88 31.1 61 16.1 41 41 N 8 13 29.86 1011 10 16 0.00 0.00

Powered by Vaisala Xweather